Houston, TX

9:39 PM CDT on September 19, 2017 (GMT -0500)
Hobby

Weather History for KHOU - April, 2014

Change the Weather History Date:

Saturday, April 5, 2014

  Actual Average Record
Temperature  
Mean Temperature 63 °F 67 °F  
Max Temperature 69 °F 78 °F 91 °F (1982)
Min Temperature 57 °F 57 °F 38 °F (1973)
Degree Days  
Heating Degree Days 2 2  
Month to date heating degree days 2 10  
Since 1 July heating degree days 1696 1339  
Cooling Degree Days 0 4  
Month to date cooling degree days 33 20  
Year to date cooling degree days 99 129  
Growing Degree Days 16 (Base 50)    
Moisture  
Dew Point 45 °F    
Average Humidity 51    
Maximum Humidity 63    
Minimum Humidity 39    
Precipitation  
Precipitation 0.00 in 0.10 in 2.61 in (1991)
Month to date precipitation T 0.50  
Year to date precipitation 5.80 10.49  
Sea Level Pressure  
Sea Level Pressure 29.98 in    
Wind  
Wind Speed 12 mph (ENE)    
Max Wind Speed 20 mph    
Max Gust Speed 24 mph    
Visibility 10 miles    
Events      
T = Trace of Precipitation, MM = Missing Value Source: NWS Daily Summary

Daily Weather History Graph

Daily Weather History Graph

Search for Another Location

Airport or City:

Trip Planner

Search our weather history database for the weather conditions in past years. The results will help you decide how hot, cold, wet, or windy it might be!

Date:

Astronomy

Apr. 05, 2014 Rise Set
Actual Time 7:05 AM CDT 7:42 PM CDT
Civil Twilight 6:41 AM CDT 8:06 PM CDT
Nautical Twilight 6:13 AM CDT 8:34 PM CDT
Astronomical Twilight 5:44 AM CDT 9:03 PM CDT
Moon 11:29 AM CDT (4/5) 12:37 AM CDT (4/5)
Length of Visible Light 13h 24m
Length of Day
12h 36m
Waxing Crescent, 34% of the Moon is Illuminated
Apr 5
Waxing Crescent
Apr 7
First Quarter
Apr 15
Full
Apr 22
Last Quarter
Apr 29
New

Hourly Weather History & Observations

Time (CDT) Temp. Dew Point Humidity Pressure Visibility Wind Dir Wind Speed Gust Speed Precip Events Conditions
12:53 AM 63.0 °F 37.0 °F 38% 30.04 in 10.0 mi NE 11.5 mph - N/A   Overcast
1:53 AM 62.1 °F 37.9 °F 41% 30.04 in 10.0 mi NE 13.8 mph - N/A   Overcast
2:53 AM 62.1 °F 37.9 °F 41% 30.04 in 10.0 mi NE 11.5 mph - N/A   Overcast
3:53 AM 61.0 °F 39.0 °F 44% 30.01 in 10.0 mi NE 15.0 mph - N/A   Overcast
4:53 AM 60.1 °F 37.9 °F 44% 30.01 in 10.0 mi NE 12.7 mph - N/A   Overcast
5:53 AM 60.1 °F 39.0 °F 46% 30.02 in 10.0 mi NE 15.0 mph 21.9 mph N/A   Overcast
6:53 AM 60.1 °F 39.0 °F 46% 30.03 in 10.0 mi NE 10.4 mph - N/A   Overcast
7:53 AM 60.1 °F 39.9 °F 47% 30.04 in 10.0 mi NE 8.1 mph - N/A   Overcast
8:53 AM 63.0 °F 41.0 °F 45% 30.04 in 10.0 mi NE 12.7 mph - N/A   Mostly Cloudy
9:53 AM 63.0 °F 41.0 °F 45% 30.05 in 10.0 mi ENE 12.7 mph - N/A   Mostly Cloudy
10:53 AM 66.9 °F 42.1 °F 40% 30.04 in 10.0 mi ENE 16.1 mph - N/A   Mostly Cloudy
11:53 AM 69.1 °F 45.0 °F 42% 30.04 in 10.0 mi East 9.2 mph - N/A   Overcast
12:53 PM 70.0 °F 45.0 °F 41% 30.02 in 10.0 mi East 11.5 mph - N/A   Overcast
1:53 PM 72.0 °F 48.0 °F 43% 29.99 in 10.0 mi NE 12.7 mph - N/A   Overcast
2:53 PM 71.1 °F 48.0 °F 44% 29.96 in 10.0 mi East 10.4 mph 20.7 mph N/A   Overcast
3:53 PM 70.0 °F 48.9 °F 47% 29.94 in 10.0 mi ESE 10.4 mph - N/A   Overcast
4:53 PM 68.0 °F 48.9 °F 50% 29.93 in 10.0 mi East 6.9 mph - N/A   Overcast
5:53 PM 68.0 °F 48.9 °F 50% 29.93 in 10.0 mi East 9.2 mph - N/A   Overcast
6:53 PM 66.9 °F 48.9 °F 52% 29.91 in 10.0 mi ESE 10.4 mph - N/A   Overcast
7:53 PM 66.9 °F 50.0 °F 54% 29.90 in 10.0 mi East 12.7 mph - N/A   Overcast
8:53 PM 66.9 °F 51.1 °F 57% 29.91 in 10.0 mi East 9.2 mph - N/A   Overcast
9:21 PM 66.2 °F 51.8 °F 60% 29.90 in 10.0 mi East 8.1 mph - N/A   Overcast
9:53 PM 66.9 °F 51.1 °F 57% 29.93 in 10.0 mi East 10.4 mph 17.3 mph N/A   Overcast
10:53 PM 64.0 °F 54.0 °F 70% 29.91 in 10.0 mi East 18.4 mph 26.5 mph N/A   Overcast
11:53 PM 62.1 °F 55.9 °F 80% 29.88 in 10.0 mi East 15.0 mph 24.2 mph N/A   Overcast